カタログに戻る

HJS-7D

運用中科学LEO
NORAD 65620·PAYLOAD·🇨🇳 China

打ち上げ Sep 16, 2025 から Jiuquan Satellite Launch Center

Loading…

次のパス (今後24時間)

TLE

最新Source: Space-Track

元期: Sep 14, 2026, 09:22 UTC

1 65620U 25209D   26257.39055927 -.00000087  00000-0  73141-4 0  9995
2 65620  50.0018  31.7297 0003638 299.5567  60.4948 13.41483130 49616

AllMySatでHJS-7Dをリアルタイム追跡

Download on the App Store